This is the latest recevied weather packets stored in our database for station/object HK6LRQ-25. If no packets are shown the sender has not sent any weather packets the latest 10 day(s).
| Time | Temp. | Humidity | Pressure | Rain* | Wind** | Luminosity | Snow |
|---|---|---|---|---|---|---|---|
| 1787435257 | 19.44° C | 81% | 1011 hPa | 0 mm | - | - | - |
| 1787433455 | 16.67° C | 78% | 1011 hPa | 0.25 mm | - | - | - |
| 1787431654 | 20° C | 78% | 1011 hPa | 0.25 mm | - | - | - |
| 1787429853 | 20° C | 74% | 1011 hPa | 0 mm | - | - | - |
| 1787428052 | 20.56° C | 73% | 1010 hPa | 0 mm | - | - | - |
| 1787426251 | 20.56° C | 72% | 1011 hPa | 0 mm | - | - | - |
| 1787424450 | 21.67° C | 72% | 1010 hPa | 0 mm | - | - | - |
| 1787422649 | 25° C | 72% | 1012 hPa | 0 mm | - | - | - |
| 1787420848 | 23.89° C | 66% | 1012 hPa | 0 mm | - | - | - |
| 1787419047 | 23.89° C | 74% | 1014 hPa | 0 mm | - | - | - |
| 1787417245 | 21.11° C | 68% | 1013 hPa | 0 mm | - | - | - |
| 1787415444 | 20.56° C | 77% | 1015 hPa | 0 mm | - | - | - |
| 1787413643 | 20° C | 72% | 1014 hPa | 0 mm | - | - | - |
| 1787411842 | 20.56° C | 80% | 1015 hPa | 0 mm | - | - | - |
| 1787410041 | 20.56° C | 75% | 1015 hPa | 0 mm | - | - | - |
| 1787408240 | 21.11° C | 85% | 1015 hPa | 0 mm | - | - | - |
| 1787406439 | 17.22° C | 77% | 1015 hPa | 0 mm | - | - | - |
| 1787404637 | 17.78° C | 81% | 1015 hPa | 0 mm | - | - | - |
| 1787402836 | 16.67° C | 75% | 1015 hPa | 0 mm | - | - | - |
| 1787401035 | 16.67° C | 72% | 1015 hPa | 0 mm | - | - | - |
| 1787399234 | 12.78° C | 71% | 1015 hPa | 0 mm | - | - | - |
| 1787397433 | 12.78° C | 67% | 1015 hPa | 0 mm | - | - | - |
| 1787395632 | 12.78° C | 72% | 1015 hPa | 0 mm | - | - | - |
| 1787393831 | 12.78° C | 67% | 1014 hPa | 0 mm | - | - | - |
| 1787392030 | 13.33° C | 72% | 1014 hPa | 0 mm | - | - | - |
* Rain latest hour (hover to see other rain measurements)
** Current wind speed in m/s (hover to see current wind gust speed)